Wind_Speed
57 59 61 63 65 67 70 72 75 75 74 73 75 76 77 79 80 82 83 84 85 86 86 86 86 86 86 86 87 88 90 91 91 92 92 92 91 90
60 62 63 66 68 70 72 74 76 79 79 77 78 79 80 82 82 83 83 83 82 82 82 81 81 80 80 80 80 81 82 83 85 86 87 88 89 90
62 64 66 68 70 72 74 75 77 78 80 78 79 81 83 83 83 82 82 80 79 78 77 76 75 75 74 74 73 73 73 74 75 76 77 79 80 82
64 66 68 70 72 74 75 76 77 79 81 81 80 81 82 82 82 80 78 76 74 72 71 70 68 67 66 65 64 64 63 63 64 65 66 68 69 71
67 69 70 72 74 75 76 77 79 81 82 83 82 81 80 79 77 75 73 71 69 66 64 62 61 59 58 57 56 55 55 55 55 56 57 58 60 62
69 71 72 74 75 76 77 79 81 82 83 83 82 79 76 73 72 70 67 64 61 59 57 55 53 52 51 50 49 49 49 49 50 51 52 53 55 57
70 72 74 75 77 78 80 81 82 83 82 81 78 74 70 68 66 63 60 57 55 53 51 49 48 47 46 45 45 45 45 45 46 46 47 48 49 51
73 74 76 77 79 81 82 83 83 82 80 77 73 69 65 62 60 57 54 51 48 47 46 44 44 42 42 43 42 42 41 41 42 43 44 44 45 46
76 77 78 80 82 82 82 81 80 78 75 72 67 62 58 55 53 50 48 46 43 42 42 40 40 39 39 39 39 39 38 38 38 39 39 41 42 43
79 80 82 82 82 82 80 78 74 70 67 64 60 55 52 49 47 46 44 42 40 39 39 37 36 37 37 37 37 37 36 35 34 34 35 36 37 39
81 83 83 82 81 79 76 72 66 62 59 56 52 49 47 45 44 43 41 39 36 35 36 35 33 34 34 35 35 35 34 33 32 31 32 33 34 35
83 82 82 79 76 72 68 63 58 54 51 49 46 45 43 42 41 40 38 36 34 32 32 32 31 32 31 31 33 33 32 32 31 30 30 31 32 32
82 80 76 73 68 64 60 56 52 49 46 44 42 41 40 39 38 38 36 35 33 31 31 31 30 30 30 29 31 31 30 30 29 29 29 29 30 31
79 74 70 65 60 56 53 50 48 45 43 41 39 37 37 36 35 35 34 33 32 31 30 30 29 29 29 29 29 30 31 30 29 29 29 29 29 30
73 68 62 57 53 50 48 46 44 42 41 39 37 36 35 34 33 32 32 31 31 30 29 29 28 28 28 28 29 30 30 30 30 30 30 29 29 29
66 61 55 51 48 46 43 42 41 40 38 37 35 33 32 31 30 30 30 29 29 28 29 29 28 28 28 28 29 30 30 30 31 30 30 29 29 29
59 53 49 45 43 41 40 39 38 37 36 35 33 31 30 29 29 28 28 28 27 27 28 29 29 29 28 28 29 29 29 30 30 30 30 29 29 29
53 47 43 41 39 38 37 36 35 35 34 32 31 29 28 28 28 27 27 27 27 28 28 29 29 29 28 28 28 28 28 28 29 29 29 29 29 29
46 43 40 38 36 35 34 34 33 33 32 30 29 28 28 27 27 27 27 27 27 27 27 28 28 28 27 27 27 27 27 28 28 28 28 29 29 29
42 39 37 35 34 33 33 33 32 31 30 29 28 28 27 27 27 27 27 26 26 26 26 26 26 26 25 25 25 26 27 27 27 27 27 28 29 29
37 36 34 33 33 33 32 31 30 29 29 28 27 27 26 26 26 26 26 25 25 25 25 25 25 24 24 24 24 25 25 25 25 26 26 27 27 28
35 33 32 32 32 32 31 30 29 28 27 27 26 26 25 25 25 25 25 25 24 24 24 25 25 24 24 24 24 24 24 24 24 24 25 25 26 27
33 31 31 31 31 30 29 28 27 26 26 25 25 25 25 25 25 25 25 24 24 24 24 25 25 25 25 25 24 24 25 25 25 25 25 26 26 27
Wind_Direction
290 291 291 291 292 292 292 292 291 290 288 289 289 289 288 288 287 286 285 284 283 282 280 278 276 275 273 272 270 268 266 265 263 262 260 259 258 256
292 292 292 293 293 293 293 293 293 292 291 291 291 291 290 290 289 288 287 286 284 283 281 279 278 276 275 273 271 270 268 266 264 262 261 259 257 255
293 293 294 294 294 294 294 294 294 294 293 293 293 293 292 291 291 289 288 287 285 284 282 280 279 277 275 274 272 271 269 267 265 263 261 258 256 254
295 295 296 296 296 296 296 296 295 295 295 295 294 294 293 292 291 289 288 287 285 284 282 281 279 278 276 274 272 271 269 267 265 263 260 258 255 252
297 297 298 298 298 297 297 297 297 297 296 296 296 295 294 292 291 289 288 286 285 284 282 281 279 277 275 273 271 270 268 266 264 262 260 258 255 252
300 300 300 299 299 299 298 298 298 298 297 297 297 295 293 292 290 289 287 286 284 283 281 280 278 276 274 272 270 268 266 265 263 262 261 259 256 253
301 301 301 301 300 300 299 299 298 298 297 297 296 294 292 290 289 287 286 284 283 281 280 278 277 275 273 271 269 268 267 266 264 262 261 259 257 254
302 302 302 302 301 301 301 300 300 298 297 296 295 293 291 289 287 286 285 283 281 279 278 277 276 274 272 271 269 268 267 266 265 263 260 258 257 254
303 303 303 302 302 301 301 300 299 298 296 295 294 292 290 289 287 285 283 281 279 277 275 274 274 273 272 271 270 269 268 267 265 263 260 258 255 253
304 304 303 303 302 301 300 299 298 296 295 294 293 291 290 288 286 284 282 280 278 276 275 274 271 270 270 271 270 270 269 268 267 264 261 258 255 252
305 305 304 303 302 300 299 298 296 295 293 292 291 290 289 287 286 285 283 280 277 275 275 274 270 269 269 268 268 268 268 268 267 265 261 258 255 252
305 305 304 302 301 299 298 297 296 293 292 290 290 289 288 287 285 284 283 280 278 275 273 273 271 269 267 266 266 267 268 267 266 264 261 259 256 253
305 304 303 301 300 298 297 296 295 293 291 289 288 287 286 285 283 283 281 280 278 276 274 273 271 269 267 264 264 266 267 266 265 263 261 259 256 253
305 304 302 300 298 296 295 294 293 292 291 290 289 287 286 284 282 281 279 278 278 277 275 273 272 269 267 265 264 265 266 266 264 263 261 259 256 253
304 303 301 298 297 295 294 293 292 292 291 290 289 287 286 284 281 279 278 277 277 276 275 274 273 271 269 267 265 264 265 265 264 262 260 258 255 252
302 301 299 296 295 294 292 292 291 291 291 290 289 287 285 283 281 279 278 277 276 275 275 275 274 274 272 269 267 265 264 263 262 261 260 257 254 250
300 299 296 294 293 292 291 291 291 291 291 290 289 287 284 283 281 279 278 277 276 275 275 276 276 276 275 272 269 266 264 262 260 259 258 255 252 249
299 298 295 293 292 291 291 291 291 291 290 289 288 286 284 282 281 279 279 278 277 276 276 276 276 276 274 273 270 267 265 262 260 258 256 254 251 247
297 296 294 293 292 291 291 291 291 291 290 288 286 285 284 282 281 280 280 280 278 278 278 278 277 276 274 272 270 268 266 264 261 258 255 253 250 247
295 294 294 293 292 292 292 292 291 290 289 287 286 285 284 282 282 281 281 280 279 278 279 278 277 276 274 272 270 269 267 264 262 259 255 252 250 247
293 292 292 292 293 292 292 292 291 290 288 287 286 285 284 283 282 282 281 279 278 278 278 277 277 276 274 271 269 268 267 265 262 259 256 253 250 247
291 291 291 292 293 293 292 292 291 290 288 287 285 284 284 283 282 282 281 279 278 277 277 276 275 275 274 272 269 268 266 264 262 259 255 252 249 246
290 290 290 292 292 292 292 292 291 290 289 287 285 285 284 283 282 282 281 280 278 277 276 275 274 274 274 272 269 267 264 263 262 259 256 253 250 248
Height
5666 5660 5655 5650 5644 5637 5631 5624 5618 5615 5616 5612 5603 5595 5587 5581 5574 5568 5562 5556 5551 5546 5543 5539 5536 5534 5533 5532 5532 5532 5533 5535 5537 5540 5544 5548 5553 5558
5651 5645 5640 5633 5627 5620 5613 5606 5598 5592 5590 5589 5580 5571 5563 5556 5549 5542 5536 5530 5525 5520 5515 5512 5509 5507 5505 5504 5504 5504 5505 5506 5508 5511 5514 5518 5523 5528
5635 5629 5623 5616 5610 5602 5595 5587 5580 5571 5566 5566 5557 5548 5539 5531 5524 5517 5510 5505 5500 5494 5490 5487 5484 5482 5480 5479 5479 5479 5479 5480 5481 5484 5486 5490 5494 5501
5619 5612 5605 5598 5591 5583 5575 5567 5559 5550 5543 5540 5536 5526 5516 5507 5499 5493 5486 5480 5476 5471 5467 5464 5461 5459 5457 5457 5456 5456 5456 5457 5458 5460 5463 5467 5471 5474
5602 5594 5587 5579 5571 5563 5555 5546 5538 5529 5521 5514 5511 5503 5493 5484 5476 5470 5464 5459 5454 5450 5446 5444 5441 5439 5438 5437 5437 5437 5437 5439 5440 5441 5443 5446 5449 5453
5583 5575 5567 5559 5551 5542 5534 5525 5516 5508 5499 5491 5485 5479 5471 5462 5454 5448 5444 5439 5435 5431 5428 5425 5423 5422 5421 5420 5421 5421 5421 5422 5423 5425 5426 5428 5431 5435
5566 5557 5548 5539 5530 5521 5512 5503 5494 5485 5476 5468 5461 5455 5449 5441 5434 5428 5424 5422 5418 5414 5412 5409 5408 5407 5406 5405 5405 5406 5406 5407 5408 5409 5411 5412 5415 5418
5546 5537 5528 5518 5509 5499 5489 5479 5470 5460 5452 5445 5439 5433 5428 5421 5415 5410 5406 5404 5403 5400 5397 5396 5394 5393 5392 5392 5392 5392 5393 5393 5394 5395 5396 5398 5400 5403
5526 5517 5507 5497 5486 5477 5467 5458 5448 5437 5429 5422 5418 5413 5408 5403 5398 5394 5391 5388 5388 5386 5384 5384 5381 5381 5379 5379 5379 5379 5380 5380 5381 5382 5383 5385 5387 5389
5505 5495 5485 5475 5463 5453 5445 5437 5428 5419 5410 5403 5398 5395 5390 5386 5382 5379 5376 5375 5374 5373 5370 5371 5370 5369 5368 5368 5367 5367 5368 5368 5369 5370 5371 5372 5374 5377
5484 5473 5461 5452 5442 5430 5422 5415 5409 5402 5393 5387 5383 5379 5375 5372 5368 5365 5363 5361 5362 5361 5359 5358 5359 5358 5358 5357 5356 5356 5357 5357 5358 5359 5360 5361 5363 5366
5464 5452 5439 5428 5419 5408 5400 5394 5390 5384 5379 5374 5370 5366 5362 5359 5355 5353 5351 5349 5349 5350 5349 5347 5347 5347 5348 5347 5346 5346 5346 5347 5348 5349 5350 5351 5353 5355
5441 5430 5419 5408 5398 5390 5383 5377 5372 5368 5364 5361 5357 5354 5350 5347 5344 5342 5340 5338 5338 5338 5338 5337 5337 5336 5337 5338 5337 5336 5336 5337 5338 5339 5340 5341 5343 5346
5417 5408 5398 5389 5381 5374 5368 5363 5358 5354 5350 5347 5345 5342 5339 5336 5333 5331 5329 5328 5327 5327 5327 5326 5326 5326 5326 5327 5327 5327 5327 5327 5328 5329 5331 5332 5334 5336
5394 5386 5379 5371 5365 5360 5354 5349 5345 5341 5338 5335 5332 5330 5327 5324 5322 5321 5319 5318 5317 5317 5316 5316 5316 5316 5316 5316 5317 5317 5317 5317 5318 5319 5321 5323 5325 5327
5375 5368 5362 5355 5350 5346 5341 5337 5333 5329 5326 5323 5321 5318 5316 5314 5312 5310 5309 5308 5308 5307 5306 5306 5306 5306 5306 5306 5306 5306 5307 5307 5308 5309 5311 5313 5315 5317
5358 5353 5347 5342 5338 5333 5329 5326 5322 5318 5315 5312 5310 5308 5305 5304 5302 5301 5300 5299 5298 5298 5297 5296 5296 5295 5295 5295 5295 5296 5296 5297 5298 5299 5301 5303 5305 5308
5341 5337 5333 5329 5325 5321 5318 5315 5311 5308 5304 5302 5299 5297 5295 5294 5292 5291 5290 5289 5289 5288 5287 5286 5286 5285 5285 5285 5285 5285 5286 5287 5288 5289 5291 5293 5295 5298
5327 5323 5319 5316 5313 5310 5307 5304 5301 5297 5294 5292 5289 5288 5286 5284 5283 5282 5281 5280 5279 5278 5277 5276 5275 5275 5275 5275 5275 5275 5276 5276 5277 5279 5281 5283 5285 5288
5314 5310 5308 5305 5302 5299 5296 5293 5290 5287 5284 5282 5280 5278 5276 5275 5274 5272 5271 5270 5269 5269 5268 5267 5266 5265 5265 5266 5265 5265 5266 5266 5267 5269 5271 5273 5275 5279
5302 5299 5296 5294 5291 5288 5285 5283 5280 5277 5275 5273 5271 5269 5267 5266 5264 5263 5262 5261 5260 5260 5259 5258 5257 5257 5256 5256 5256 5256 5256 5257 5258 5259 5261 5263 5266 5269
5291 5289 5286 5283 5281 5278 5275 5273 5270 5268 5265 5263 5262 5260 5258 5257 5255 5254 5253 5252 5251 5250 5250 5249 5248 5248 5248 5248 5247 5247 5247 5248 5249 5250 5252 5255 5256 5259
5281 5278 5276 5274 5271 5268 5266 5263 5261 5259 5256 5254 5253 5251 5249 5248 5247 5245 5244 5243 5242 5242 5241 5240 5239 5239 5238 5238 5239 5239 5239 5239 5240 5242 5243 5245 5247 5250